CAPE
0 0 0 0 0 0 0 0 0 0 0 1 0 0 0 0 0 0 0 0 0 0 0 0 0 0 0 0 0 0 0 0 0 0 0 0 0 0 0 0 0 0 0 0
0 0 0 0 0 0 0 0 0 0 0 0 0 0 0 0 0 0 0 0 0 0 0 0 0 0 0 0 0 0 0 0 0 0 0 0 0 0 0 0 0 0 0 0
0 0 0 0 0 0 0 7 9 0 0 0 0 0 0 0 0 0 0 0 0 0 0 0 0 0 0 0 0 0 0 0 0 0 0 0 0 0 0 0 0 0 0 0
0 0 0 0 0 0 4 7 0 0 0 0 0 0 0 0 0 0 0 0 0 0 0 0 0 0 0 0 0 0 0 0 0 0 0 0 0 0 0 0 0 0 0 0
0 0 0 0 1 6 2 1 0 0 0 0 0 0 0 0 0 0 0 0 0 0 0 0 0 0 0 0 0 0 0 0 0 0 0 0 0 0 0 0 0 0 0 0
0 0 0 0 0 0 3 0 0 0 0 0 0 0 0 0 0 0 0 0 0 0 0 0 0 0 0 0 0 0 0 0 0 0 0 0 0 0 0 0 0 0 0 0
0 0 0 0 0 0 0 0 0 0 0 0 0 0 0 0 0 0 0 0 0 0 0 0 0 0 0 0 0 0 0 0 0 0 0 0 0 0 0 0 0 0 0 0
0 0 0 0 0 7 5 4 2 3 0 0 0 0 3 0 0 0 0 0 0 0 0 0 0 0 0 0 0 0 0 0 0 0 0 0 0 0 0 1 0 0 1 1
0 0 0 0 0 0 0 0 0 0 0 0 0 0 0 0 0 0 0 0 0 0 0 0 0 0 0 0 0 0 0 0 1 1 0 0 2 1 0 0 3 4 1 5
0 3 0 0 0 0 0 1 0 0 0 0 0 0 0 0 0 0 0 0 0 0 0 0 0 0 0 0 0 0 0 1 2 3 3 7 5 5 6 6 5 6 5 2
0 0 0 0 0 0 0 0 6 0 0 3 0 0 0 0 0 0 0 0 0 0 0 0 0 0 0 0 0 0 0 0 1 4 4 5 11 17 17 9 6 7 4 5
0 9 0 0 0 0 0 0 0 0 0 0 0 0 0 0 0 0 0 0 0 0 0 0 0 0 0 0 0 0 0 0 0 0 0 5 6 5 11 6 5 5 3 7
0 0 0 0 0 0 0 0 8 0 0 0 0 0 0 0 0 0 0 0 0 0 0 0 0 0 0 0 0 0 0 0 0 0 1 5 7 10 10 3 3 11 7 3
0 0 0 0 0 0 0 0 0 0 0 0 0 0 0 0 0 0 0 0 0 0 0 0 0 0 0 0 0 0 0 0 0 0 0 0 1 4 4 3 2 2 6 6
0 0 0 0 0 0 0 0 0 0 0 0 0 0 0 0 0 0 0 0 0 0 0 0 0 0 0 0 0 0 0 0 0 0 0 0 0 0 2 3 1 1 7 3
0 0 0 0 0 0 0 0 0 0 0 0 0 0 0 0 0 0 0 0 0 0 0 0 0 0 0 0 0 0 0 0 0 0 0 0 0 0 1 3 3 5 5 0
1 0 0 0 0 0 0 0 0 0 0 0 0 0 0 0 0 0 0 0 0 0 0 0 0 0 0 0 0 0 0 0 0 0 0 0 0 0 0 5 5 3 0 0
0 0 0 0 0 0 0 0 0 0 0 0 0 0 0 0 0 0 0 0 0 0 0 0 0 0 0 0 0 0 0 0 0 0 0 0 0 0 1 1 1 2 1 0
0 0 0 0 0 0 1 0 0 0 0 0 0 0 0 0 0 0 0 0 0 0 0 0 0 0 0 0 0 0 0 0 0 0 0 0 0 0 0 0 0 0 0 0
0 0 0 0 0 0 0 0 0 0 0 0 0 0 0 0 0 0 0 0 0 0 0 0 0 0 0 0 0 0 0 0 0 0 0 0 0 0 0 0 0 0 0 0
0 0 0 0 0 0 0 0 0 0 0 0 0 0 0 0 0 0 0 0 0 0 0 0 0 0 0 0 0 0 0 0 0 0 0 0 0 0 0 0 0 0 0 0
0 0 1 0 0 0 0 0 1 0 0 0 0 0 0 0 0 0 0 0 0 0 0 0 0 0 0 0 0 0 0 0 0 0 0 0 0 0 0 0 0 0 0 0
0 0 0 0 0 0 0 0 0 0 0 0 0 0 0 0 0 0 0 0 0 0 0 0 0 0 0 0 0 0 0 0 0 0 0 0 0 0 0 0 0 0 0 0
0 0 0 0 0 0 0 0 0 0 0 0 0 0 0 0 0 0 0 0 0 0 0 0 0 0 0 0 0 0 0 0 0 0 0 0 0 0 0 0 0 0 0 0
0 0 0 0 0 0 0 0 0 0 0 0 0 0 0 0 0 0 0 0 0 0 0 0 0 0 0 0 0 0 0 0 0 0 0 0 0 0 0 0 0 0 2 4
0 0 0 0 0 0 0 0 0 0 0 0 0 0 0 0 0 0 0 0 0 0 0 0 0 0 0 0 0 0 0 0 0 0 0 0 0 0 0 0 0 9 15 19
CIN
0 0 0 0 0 0 0 0 0 0 0 -11 0 0 0 0 0 0 0 0 0 0 0 0 0 0 0 0 0 0 0 0 0 0 0 0 0 0 0 0 0 0 0 0
0 0 0 0 0 0 0 -2 -1 -4 0 0 0 0 0 0 0 0 0 0 0 0 0 0 0 0 0 0 0 0 0 0 0 0 0 0 0 0 0 0 0 0 0 0
0 0 0 0 0 0 0 -2 -4 0 0 0 0 0 0 0 0 0 0 0 0 0 0 0 0 0 0 0 0 0 0 0 0 0 0 0 0 0 0 0 0 0 0 0
0 0 0 0 0 0 -5 -15 -1 0 0 0 0 -1 0 0 0 0 0 0 0 0 0 0 0 0 0 0 0 0 0 0 0 0 0 0 0 0 0 0 0 0 0 0
0 0 0 0 -8 -13 -8 -40 -36 0 0 0 0 0 0 0 -1 0 0 0 0 0 0 0 0 0 0 0 0 0 0 0 0 0 0 0 0 0 0 0 0 0 0 0
0 0 0 -3 -11 0 -19 0 0 0 0 0 0 0 0 0 -6 0 0 0 0 0 0 0 0 0 0 0 0 0 0 0 0 0 0 0 0 0 0 0 -1 0 0 0
0 0 -6 0 0 0 0 0 0 0 0 0 0 0 0 0 0 0 0 0 0 0 0 0 0 0 0 0 0 0 0 0 0 0 0 0 0 0 0 0 0 0 -1 0
0 0 0 0 0 -17 -12 -17 -5 -9 0 -1 0 0 -11 0 0 0 0 0 0 0 0 0 0 0 0 0 0 0 0 0 0 0 0 0 0 0 0 0 0 -2 -3 -4
0 0 0 0 0 0 0 0 0 -6 0 0 0 0 0 0 0 0 0 0 0 0 0 0 0 0 0 0 0 0 0 0 0 0 0 0 0 0 0 0 0 -1 -3 -2
0 -1 0 0 0 0 0 -6 -1 0 0 0 0 0 0 0 0 0 0 0 0 0 0 0 0 0 0 0 0 0 0 0 0 0 0 0 0 0 0 0 0 0 -1 -2
0 -2 0 0 0 0 0 -1 -7 -2 0 -10 0 0 0 0 0 0 0 0 0 0 0 0 0 0 0 0 0 0 0 0 0 0 0 0 0 0 0 0 0 0 -1 -2
0 -1 0 0 0 0 0 0 0 -1 0 0 0 0 0 0 0 0 0 0 0 0 0 0 0 0 0 0 0 0 0 0 0 0 0 0 0 0 0 0 0 0 0 -1
0 0 0 0 0 0 0 0 0 0 0 0 0 0 0 0 0 0 0 0 0 0 0 0 0 0 0 0 0 0 0 0 0 0 -1 0 0 0 0 0 0 0 0 0
0 0 0 0 0 0 0 0 0 0 0 0 0 0 0 0 0 0 0 0 0 0 0 0 0 0 0 0 0 0 0 0 0 0 0 -1 0 0 0 0 0 0 0 0
0 0 0 0 0 0 0 0 0 0 0 0 0 0 0 0 0 0 0 0 0 0 0 0 0 0 0 0 0 0 0 0 0 0 0 0 0 0 0 0 0 0 0 -1
0 0 0 0 0 0 0 0 0 0 0 0 0 0 0 0 0 0 0 0 0 0 0 0 0 0 0 0 0 0 0 0 0 0 0 0 0 0 0 0 0 0 -1 -1
-1 0 0 0 0 0 0 0 0 0 0 0 0 0 0 0 0 0 0 0 0 0 0 0 0 0 0 0 0 0 0 0 0 0 0 0 0 0 0 0 0 -1 0 0
0 0 0 0 0 0 0 0 0 0 0 0 0 0 0 0 0 0 0 0 0 0 0 0 0 0 0 0 0 0 0 0 0 0 0 0 0 0 0 0 0 0 -1 0
0 0 0 0 0 0 -1 0 0 0 0 0 0 0 0 0 0 0 0 0 0 0 0 0 0 0 0 0 0 0 0 0 0 0 0 0 0 0 0 0 0 0 0 0
0 0 0 0 0 0 0 0 0 0 0 0 0 0 0 0 0 0 0 0 0 0 0 0 0 0 0 0 0 0 0 0 0 0 0 0 0 0 0 0 0 0 0 0
0 0 0 0 0 0 0 0 0 0 0 0 0 0 0 0 0 0 0 0 0 0 0 0 0 0 0 0 0 0 0 0 0 0 0 0 0 0 0 0 0 0 0 0
0 0 -1 0 0 0 0 0 -1 0 0 0 0 0 0 0 0 0 0 0 0 0 0 0 0 0 0 0 0 0 0 0 0 0 0 0 0 0 0 0 0 0 0 0
0 0 0 0 0 0 0 0 0 0 0 0 0 0 0 0 0 0 0 0 0 0 0 0 0 0 0 0 0 0 0 0 0 0 0 0 0 0 0 0 0 0 0 0
0 0 0 0 0 0 0 0 0 0 0 0 0 0 0 0 0 0 0 0 0 0 0 0 0 0 0 0 0 0 0 0 0 0 0 0 0 0 0 0 0 0 0 0
0 0 0 0 0 0 0 0 0 0 0 0 0 0 0 0 0 0 0 0 0 0 0 0 0 0 0 0 0 0 0 0 0 0 0 0 0 0 0 0 0 0 -1 0
0 0 0 0 0 0 0 0 0 0 0 0 0 0 0 0 0 0 0 0 0 0 0 0 0 0 0 0 0 0 0 0 0 0 0 0 0 0 0 0 0 0 0 0
Wind_Speed
3 7 12 17 8 14 18 17 20 21 20 19 19 21 23 19 17 15 16 17 13 5 3 6 7 5 6 5 6 5 4 5 3 2 4 5 7 8 6 5 8 10 9 10
5 12 15 14 13 19 17 22 21 16 17 17 19 21 22 20 17 13 8 3 6 5 6 7 8 8 7 6 6 6 5 5 4 3 3 4 6 7 7 7 8 8 9 9
5 13 15 11 16 19 17 18 15 17 18 18 17 13 18 25 17 17 14 7 6 8 8 9 9 7 7 7 7 8 6 6 6 6 7 8 8 9 10 10 9 9 8 8
9 4 13 14 15 16 15 12 13 17 16 13 6 15 17 16 13 10 11 8 7 10 9 8 9 7 7 6 7 8 10 10 7 7 7 10 9 11 10 10 9 8 13 13
10 14 19 16 13 13 10 5 12 11 16 7 20 4 9 12 6 5 10 10 9 7 7 7 7 7 8 8 8 9 10 11 11 9 9 9 13 11 10 10 14 13 13 11
13 10 5 14 8 5 9 4 14 6 3 3 6 6 5 7 3 5 5 7 7 7 5 5 6 10 11 10 11 12 14 14 13 11 11 13 16 15 12 12 11 10 9 9
16 7 3 5 9 8 9 6 5 8 6 7 9 9 4 5 6 3 2 9 8 7 7 10 12 12 13 14 14 13 14 17 15 15 15 16 17 16 17 15 12 13 10 10
7 10 9 17 13 11 5 6 3 5 5 13 13 4 3 2 4 2 6 8 7 6 9 10 11 12 12 13 14 15 15 17 17 16 18 16 18 12 13 15 14 12 12 10
8 7 23 16 19 3 8 3 6 4 0 4 4 7 5 3 3 7 8 9 8 9 10 11 11 11 13 14 15 15 17 18 17 17 17 18 16 18 17 18 16 12 15 12
7 19 4 12 9 5 5 5 6 5 5 6 6 5 4 14 8 16 14 12 11 8 12 14 14 16 15 16 17 17 17 18 19 18 17 16 17 19 18 15 18 18 17 16
2 6 10 9 3 7 8 4 3 1 3 2 5 7 8 7 5 12 12 14 8 9 11 14 14 15 15 14 15 16 17 18 18 18 18 19 17 18 17 17 18 18 18 17
6 5 8 13 13 7 6 4 5 2 7 3 4 10 3 4 8 4 14 15 11 9 12 14 13 14 14 15 16 17 17 17 17 17 19 20 19 18 18 20 20 18 19 18
6 4 10 10 9 6 3 3 5 2 2 6 3 9 6 16 15 15 14 11 10 13 14 15 15 16 16 16 17 17 18 17 17 18 19 20 20 18 20 22 21 19 19 20
4 1 8 9 12 3 8 8 2 5 3 5 10 14 19 19 16 18 16 9 8 9 14 14 15 16 17 17 17 19 19 18 18 17 17 20 19 19 20 21 21 20 18 19
4 6 5 9 15 5 11 12 16 4 14 7 12 7 18 15 14 14 8 8 11 14 16 16 17 17 18 18 19 20 19 19 19 19 18 19 18 19 20 21 21 19 19 18
3 5 3 14 9 5 5 13 13 13 8 7 8 9 7 9 9 10 9 7 10 14 15 16 18 19 20 20 21 22 20 20 19 19 17 19 17 16 19 19 18 19 19 18
3 0 3 7 3 4 2 7 4 4 4 5 2 8 7 18 17 14 8 4 7 12 14 16 17 17 18 20 19 22 22 19 19 18 19 18 14 10 16 17 18 17 20 15
4 2 3 6 6 5 6 3 4 5 6 4 9 9 9 12 14 9 4 3 9 9 12 15 15 18 19 19 20 20 20 21 21 20 21 20 17 7 9 12 13 13 12 15
8 3 3 1 3 7 0 6 0 3 5 5 6 8 8 9 8 5 3 4 5 6 9 10 13 14 16 18 20 20 21 21 22 23 23 22 18 14 13 10 8 9 10 9
3 4 3 3 1 4 6 7 4 4 5 5 4 6 5 10 11 6 5 3 7 7 7 10 15 13 14 18 19 20 21 22 22 23 22 20 19 19 17 16 14 11 12 11
5 4 7 8 4 8 5 7 6 5 8 6 3 6 4 3 6 10 9 7 4 5 8 8 12 11 13 16 17 18 21 23 23 21 22 22 22 19 18 18 16 14 14 15
5 3 4 3 2 8 5 4 1 7 6 4 5 5 5 7 10 7 8 5 7 6 7 8 10 13 13 14 14 16 19 20 20 21 21 22 22 19 17 19 16 15 15 16
3 7 4 6 8 7 5 6 7 4 6 5 4 5 6 9 7 10 7 5 2 3 5 3 7 10 13 13 13 14 17 18 18 18 20 21 20 20 20 20 19 15 13 13
5 4 7 5 6 10 6 4 2 3 4 5 4 7 9 9 10 10 8 6 3 1 3 3 6 10 11 14 13 11 13 14 13 15 16 15 17 18 19 15 15 14 13 12
6 3 5 9 15 11 8 6 2 4 3 5 6 6 9 10 11 8 10 7 5 2 0 2 4 5 9 10 13 14 14 13 12 12 13 14 12 14 13 15 16 14 18 19
8 11 5 7 7 5 5 3 3 5 6 7 11 12 9 10 11 11 10 8 4 4 1 2 2 3 7 8 9 13 14 13 12 11 10 11 9 9 9 10 10 29 32 34
Wind_Direction
248 299 280 293 273 295 311 311 307 307 307 305 301 292 294 287 281 281 282 286 287 111 87 79 77 61 34 11 359 339 318 299 308 298 291 284 275 280 271 254 250 241 245 252
336 266 272 304 310 307 301 297 300 300 308 300 293 293 289 280 278 276 285 119 121 106 66 34 23 21 15 345 333 328 313 308 298 287 268 268 287 285 289 279 255 246 243 246
216 272 309 325 319 306 304 298 303 303 313 301 296 291 297 300 290 275 259 154 87 70 42 16 4 354 344 332 319 312 297 278 269 266 277 278 275 278 277 270 266 262 256 242
270 252 313 311 302 294 297 303 302 305 323 304 320 299 301 298 314 52 82 77 54 38 23 358 340 324 326 316 310 303 300 291 279 272 274 272 269 269 265 265 270 265 250 248
262 302 297 296 278 291 271 306 289 295 290 325 305 228 283 309 266 93 57 46 27 10 349 315 322 328 323 321 311 304 301 297 293 282 273 271 269 267 267 263 270 265 260 262
261 271 259 260 288 287 304 335 304 316 89 2 259 346 261 292 345 51 13 18 340 298 314 326 328 325 316 314 309 306 301 293 291 288 279 271 269 270 269 268 263 258 253 248
316 278 313 27 340 342 25 4 310 351 1 233 317 335 290 24 53 63 18 329 320 339 332 335 326 323 317 312 307 302 299 296 290 284 278 273 270 270 265 262 257 254 261 246
348 322 23 339 312 285 267 172 199 295 302 298 313 255 290 227 104 50 342 299 303 316 339 317 315 312 308 305 304 301 296 289 286 281 276 271 267 260 258 254 249 251 248 252
310 271 319 287 303 266 295 1 230 265 54 47 254 298 285 144 342 313 310 330 310 323 314 313 310 306 311 310 301 295 289 284 279 276 274 270 262 256 254 252 252 249 246 247
261 302 324 328 333 355 336 289 319 344 306 306 295 285 251 311 308 330 323 324 314 311 327 326 318 319 313 304 300 296 289 283 282 278 271 266 262 258 254 250 247 243 243 240
222 218 289 353 317 289 326 331 297 200 165 284 316 279 236 242 261 304 307 317 315 313 312 319 312 308 300 296 294 289 289 285 281 276 273 267 260 255 252 248 244 241 239 236
232 271 284 248 259 241 210 252 190 319 322 230 191 281 256 229 301 277 310 318 328 322 317 316 309 305 306 302 301 300 295 288 282 279 275 268 263 256 247 243 242 233 238 230
279 239 314 324 354 355 36 339 324 10 47 215 156 272 303 322 323 322 318 315 326 331 322 320 319 317 313 308 308 307 297 292 287 281 273 268 262 250 243 242 237 231 228 231
42 306 177 255 250 180 310 289 291 156 243 245 241 290 307 314 320 319 326 327 323 317 321 317 318 318 314 312 313 308 306 304 297 287 277 272 261 247 239 237 235 230 226 225
121 258 182 246 256 206 253 273 288 182 261 252 287 295 295 302 305 308 304 323 336 328 331 322 322 319 314 317 317 315 313 310 307 302 290 274 259 242 231 225 223 221 221 219
264 269 70 294 280 201 264 268 255 261 266 237 263 279 248 289 304 311 307 328 334 322 326 320 322 322 322 323 321 320 320 318 318 307 300 295 270 231 218 217 213 212 211 213
239 215 24 271 296 329 307 256 237 266 240 174 281 253 312 324 323 323 311 328 307 308 316 321 320 319 320 322 322 321 322 323 327 323 327 322 311 196 191 198 196 201 206 204
206 167 163 265 350 18 239 230 201 219 265 266 286 286 288 290 294 295 238 257 305 307 319 324 321 322 323 325 328 326 330 336 340 340 345 350 357 41 171 177 183 186 200 200
197 183 276 191 199 275 200 301 253 130 275 206 247 283 288 289 302 304 242 206 246 273 299 300 308 318 323 334 333 333 341 344 345 352 356 354 7 32 60 75 124 161 161 145
122 210 190 16 164 239 241 269 189 128 288 238 208 277 286 322 350 297 283 290 294 287 298 318 323 328 338 342 339 342 346 347 354 352 356 1 12 29 44 54 55 75 95 93
328 348 216 234 255 288 236 273 144 58 256 293 218 261 267 282 230 276 310 305 255 273 313 331 329 333 342 342 347 351 347 352 342 351 0 6 18 31 37 49 46 53 72 82
186 143 247 47 50 290 202 345 102 235 293 237 272 251 264 259 283 282 287 282 302 315 332 350 339 338 345 351 354 355 356 337 339 355 5 6 17 26 33 44 48 50 58 64
298 188 205 182 226 250 212 211 242 193 233 275 261 298 290 300 295 305 298 308 295 312 326 338 340 335 339 355 2 358 348 342 343 1 3 4 12 23 27 34 39 40 50 63
269 198 245 342 265 258 261 271 247 221 254 304 339 320 318 317 312 310 311 300 306 343 328 347 3 347 351 348 352 357 352 349 352 4 6 9 18 17 28 35 35 44 45 49
214 293 243 261 278 277 269 141 308 316 294 335 325 313 320 323 313 303 311 309 294 288 90 36 18 1 347 345 348 346 353 358 10 14 8 13 18 21 19 33 40 36 46 52
223 241 195 230 230 212 259 35 37 342 337 336 331 327 336 319 312 320 310 305 288 289 145 58 53 31 346 350 358 345 346 354 9 23 18 12 13 16 22 19 36 49 51 49